Retour au catalogue

STARLINK-5937

ActifCommunicationsVLEO
NORAD 56922·PAYLOAD·🇺🇸 United States

Lancé Jun 12, 2023 depuis Cape Canaveral Space Force Station

Loading…

Prochains Passages (prochaines 24 heures)

TLE

FraisSource: CelesTrak SupGP

Époque: Sep 15, 2026, 01:55 UTC

1 56922C 23083AY  26258.08034722 -.00001669  00000+0 -60435-4 0  2582
2 56922  43.0032  81.3789 0001975 270.9022 307.3000 15.27588027    17

Suivez STARLINK-5937 en temps réel avec AllMySat

Download on the App Store